Location: State Camp
(41.2367°N, 77.7828°W)
Time: 12:04:36
(UTC-04:00)

ADEOS Rocket - Visible Passes

Search period start: 29 August 2014 00:00
Search period end: 08 September 2014 00:00
Orbit: 859 x 1307 km, 98.7° (Epoch: 29 August)

Date Brightness Start Highest point End Pass type
(mag) Time Alt. Az. Time Alt. Az. Time Alt. Az.
29 Aug 3.9 21:03:21 19° ESE 21:05:55 27° ENE 21:10:41 10° N visible
29 Aug 3.7 22:50:19 37° WSW 22:51:15 40° W 22:56:37 10° NNW visible
30 Aug 4.7 20:16:03 10° ENE 20:17:46 11° NE 20:19:31 10° NE visible
30 Aug 2.7 22:00:50 53° SSE 22:02:13 80° ENE 22:08:02 10° NNW visible
30 Aug 5.2 23:47:48 12° W 23:48:36 12° W 23:50:49 10° WNW visible
31 Aug 3.7 21:11:22 24° ESE 21:13:36 32° ENE 21:18:42 10° N visible
31 Aug 4.0 22:58:20 32° WSW 22:59:05 34° W 23:04:18 10° NNW visible
01 Sep 4.6 20:22:41 10° E 20:25:24 14° NE 20:28:11 10° NNE visible
01 Sep 2.7 22:08:51 60° S 22:09:59 87° WSW 22:15:53 10° NNW visible
02 Sep 3.5 21:19:23 29° ESE 21:21:17 38° ENE 21:26:42 10° N visible
02 Sep 4.2 23:06:21 28° WSW 23:06:57 29° W 23:11:57 10° NW visible
03 Sep 4.5 20:29:55 11° E 20:33:02 16° ENE 20:36:33 10° NNE visible
03 Sep 2.9 22:16:53 62° SSW 22:17:45 75° WSW 22:23:43 10° NNW visible
04 Sep 3.2 21:27:24 36° ESE 21:29:00 45° ENE 21:34:40 10° N visible
04 Sep 4.5 23:14:22 24° W 23:14:49 25° W 23:19:34 10° NW visible
05 Sep 4.4 20:37:56 14° E 20:40:40 19° ENE 20:44:48 10° NNE visible
05 Sep 3.0 22:24:54 59° SW 22:25:33 63° W 22:31:32 10° NNW visible
06 Sep 3.1 21:35:26 44° ESE 21:36:43 53° ENE 21:42:38 10° N visible
06 Sep 4.7 23:22:23 21° W 23:22:43 21° W 23:27:07 10° NW visible
07 Sep 4.2 20:45:57 18° E 20:48:20 23° ENE 20:52:58 10° N visible
07 Sep 3.3 22:32:55 53° WSW 22:33:22 54° W 22:39:21 10° NNW visible
